Location: Casa Rossa
(45.2389°N, 12.2056°E)
Time: 03:57:40
(UTC+00:00)

BREEZE-M DEB (TANK) - Pass Details

Date: 14 July 2020
Orbit: 275 x 20501 km, 49.2° (Epoch: 11 August)

Event Time Altitude Azimuth Distance (km) Brightness Sun altitude
Exits shadow 01:57:26 - 286° (WNW) 2,086 5.6 -13.8°
Reaches altitude 10° 01:58:23 10° 281° (W) 1,665 5.0 -13.7°
Maximum altitude 02:01:29 47° 204° (SSW) 1,083 3.9 -13.4°
Drops below altitude 10° 02:12:02 10° 135° (SE) 5,517 7.8 -12.2°
Sets 02:21:00 0° 133° (SE) 9,080 9.0 -11.1°
